TimeCDT,TemperatureF,Dew PointF,Humidity,Sea Level PressureIn,VisibilityMPH,Wind Direction,Wind SpeedMPH,Gust SpeedMPH,PrecipitationIn,Events,Conditions,WindDirDegrees,DateUTC
12:15 AM,50.0,44.6,82,29.96,10.0,SE,5.8,-,N/A,,Clear,140,2013-10-08 05:15:00
12:35 AM,50.0,44.6,82,29.96,10.0,SE,6.9,-,N/A,,Clear,140,2013-10-08 05:35:00
12:54 AM,50.0,44.6,82,29.96,10.0,SE,6.9,-,N/A,,Clear,140,2013-10-08 05:54:00
1:15 AM,50.0,44.6,82,29.96,10.0,SE,5.8,-,N/A,,Clear,140,2013-10-08 06:15:00
1:35 AM,48.2,44.6,87,29.96,10.0,SE,5.8,-,N/A,,Clear,140,2013-10-08 06:35:00
1:55 AM,50.0,44.6,82,29.95,10.0,SE,5.8,-,N/A,,Clear,130,2013-10-08 06:55:00
2:15 AM,48.2,44.6,87,29.95,10.0,SE,5.8,-,N/A,,Clear,130,2013-10-08 07:15:00
2:34 AM,48.2,42.8,82,29.95,10.0,SE,5.8,-,N/A,,Clear,140,2013-10-08 07:34:00
2:55 AM,50.0,42.8,76,29.95,10.0,SE,6.9,-,N/A,,Clear,140,2013-10-08 07:55:00
3:15 AM,48.2,42.8,82,29.94,10.0,SE,6.9,-,N/A,,Clear,140,2013-10-08 08:15:00
3:35 AM,48.2,42.8,82,29.94,10.0,SE,6.9,-,N/A,,Clear,140,2013-10-08 08:35:00
3:54 AM,48.2,42.8,82,29.93,10.0,SE,8.1,-,N/A,,Clear,140,2013-10-08 08:54:00
4:15 AM,50.0,42.8,76,29.93,10.0,SE,8.1,-,N/A,,Clear,140,2013-10-08 09:15:00
4:35 AM,48.2,42.8,82,29.92,10.0,SSE,9.2,-,N/A,,Clear,150,2013-10-08 09:35:00
4:55 AM,50.0,42.8,76,29.92,10.0,SSE,8.1,-,N/A,,Clear,150,2013-10-08 09:55:00
5:15 AM,50.0,42.8,76,29.92,10.0,SE,8.1,-,N/A,,Clear,140,2013-10-08 10:15:00
5:35 AM,50.0,42.8,76,29.92,10.0,SSE,8.1,-,N/A,,Clear,160,2013-10-08 10:35:00
5:55 AM,51.8,42.8,71,29.92,10.0,South,9.2,-,N/A,,Clear,170,2013-10-08 10:55:00
6:15 AM,51.8,42.8,71,29.92,10.0,South,9.2,-,N/A,,Clear,170,2013-10-08 11:15:00
6:35 AM,51.8,42.8,71,29.92,10.0,SSE,10.4,-,N/A,,Clear,160,2013-10-08 11:35:00
6:55 AM,51.8,42.8,71,29.92,10.0,South,9.2,-,N/A,,Clear,170,2013-10-08 11:55:00
7:15 AM,51.8,42.8,71,29.92,10.0,SSE,9.2,-,N/A,,Clear,160,2013-10-08 12:15:00
7:35 AM,51.8,42.8,71,29.92,10.0,South,10.4,-,N/A,,Clear,170,2013-10-08 12:35:00
7:55 AM,51.8,42.8,71,29.92,10.0,SSE,10.4,-,N/A,,Clear,160,2013-10-08 12:55:00
8:15 AM,53.6,42.8,67,29.91,10.0,SSE,11.5,-,N/A,,Clear,160,2013-10-08 13:15:00
8:35 AM,53.6,42.8,67,29.91,10.0,South,11.5,-,N/A,,Clear,170,2013-10-08 13:35:00
8:55 AM,55.4,42.8,63,29.91,10.0,South,12.7,21.9,N/A,,Clear,170,2013-10-08 13:55:00
9:15 AM,57.2,42.8,59,29.90,10.0,South,18.4,-,N/A,,Clear,180,2013-10-08 14:15:00
9:35 AM,60.8,42.8,52,29.91,10.0,South,17.3,23.0,N/A,,Clear,170,2013-10-08 14:35:00
9:55 AM,62.6,42.8,48,29.90,10.0,South,17.3,23.0,N/A,,Clear,180,2013-10-08 14:55:00
10:15 AM,64.4,42.8,45,29.89,10.0,South,16.1,26.5,N/A,,Clear,170,2013-10-08 15:15:00
10:35 AM,66.2,41.0,40,29.89,10.0,South,17.3,24.2,N/A,,Clear,170,2013-10-08 15:35:00
10:54 AM,69.8,42.8,38,29.89,10.0,South,16.1,25.3,N/A,,Clear,170,2013-10-08 15:54:00
11:15 AM,71.6,41.0,33,29.88,10.0,South,19.6,25.3,N/A,,Clear,170,2013-10-08 16:15:00
11:35 AM,71.6,42.8,35,29.88,10.0,South,20.7,27.6,N/A,,Clear,170,2013-10-08 16:35:00
11:55 AM,71.6,41.0,33,29.88,10.0,South,20.7,27.6,N/A,,Clear,180,2013-10-08 16:55:00
12:15 PM,71.6,41.0,33,29.87,10.0,South,20.7,26.5,N/A,,Clear,170,2013-10-08 17:15:00
12:35 PM,73.4,42.8,33,29.85,10.0,SSE,19.6,28.8,N/A,,Clear,160,2013-10-08 17:35:00
12:55 PM,75.2,41.0,29,29.85,10.0,SSE,24.2,-,N/A,,Clear,160,2013-10-08 17:55:00
1:15 PM,75.2,39.2,27,29.85,10.0,SSE,21.9,28.8,N/A,,Clear,160,2013-10-08 18:15:00
1:35 PM,77.0,39.2,26,29.84,10.0,SSE,21.9,27.6,N/A,,Clear,160,2013-10-08 18:35:00
1:55 PM,78.8,39.2,24,29.83,10.0,South,26.5,35.7,N/A,,Clear,170,2013-10-08 18:55:00
2:15 PM,78.8,39.2,24,29.83,10.0,South,20.7,33.4,N/A,,Clear,170,2013-10-08 19:15:00
2:35 PM,78.8,37.4,23,29.83,10.0,South,24.2,31.1,N/A,,Clear,170,2013-10-08 19:35:00
2:54 PM,78.8,35.6,21,29.83,10.0,South,25.3,35.7,N/A,,Clear,170,2013-10-08 19:54:00
3:15 PM,77.0,35.6,22,29.82,10.0,SSE,26.5,33.4,N/A,,Clear,160,2013-10-08 20:15:00
3:35 PM,78.8,35.6,21,29.82,10.0,SSE,21.9,32.2,N/A,,Clear,160,2013-10-08 20:35:00
3:55 PM,78.8,37.4,23,29.82,10.0,SSE,19.6,28.8,N/A,,Clear,160,2013-10-08 20:55:00
4:15 PM,77.0,39.2,26,29.82,10.0,SSE,17.3,27.6,N/A,,Clear,160,2013-10-08 21:15:00
4:34 PM,78.8,39.2,24,29.82,10.0,SSE,19.6,25.3,N/A,,Clear,150,2013-10-08 21:34:00
4:55 PM,77.0,39.2,26,29.82,10.0,SSE,20.7,28.8,N/A,,Clear,160,2013-10-08 21:55:00
5:15 PM,77.0,39.2,26,29.81,10.0,SSE,17.3,26.5,N/A,,Clear,160,2013-10-08 22:15:00
5:35 PM,75.2,37.4,25,29.81,10.0,SSE,20.7,28.8,N/A,,Clear,160,2013-10-08 22:35:00
5:55 PM,75.2,37.4,25,29.81,10.0,SSE,19.6,27.6,N/A,,Clear,160,2013-10-08 22:55:00
6:15 PM,75.2,39.2,27,29.82,10.0,SSE,17.3,24.2,N/A,,Clear,150,2013-10-08 23:15:00
6:35 PM,73.4,39.2,29,29.83,10.0,SSE,17.3,21.9,N/A,,Clear,150,2013-10-08 23:35:00
6:55 PM,71.6,39.2,31,29.83,10.0,SSE,16.1,25.3,N/A,,Clear,150,2013-10-08 23:55:00
7:15 PM,71.6,39.2,31,29.83,10.0,SSE,18.4,26.5,N/A,,Clear,150,2013-10-09 00:15:00
7:35 PM,71.6,39.2,31,29.84,10.0,SSE,18.4,-,N/A,,Clear,150,2013-10-09 00:35:00
7:55 PM,69.8,39.2,33,29.85,10.0,SSE,19.6,25.3,N/A,,Clear,160,2013-10-09 00:55:00
8:15 PM,69.8,41.0,35,29.86,10.0,SSE,19.6,23.0,N/A,,Clear,160,2013-10-09 01:15:00
8:35 PM,69.8,42.8,38,29.87,10.0,SSE,17.3,25.3,N/A,,Clear,160,2013-10-09 01:35:00
8:55 PM,69.8,42.8,38,29.87,10.0,South,17.3,25.3,N/A,,Clear,170,2013-10-09 01:55:00
9:15 PM,68.0,42.8,40,29.88,10.0,SSE,16.1,21.9,N/A,,Clear,160,2013-10-09 02:15:00
9:35 PM,66.2,44.6,46,29.90,10.0,South,13.8,21.9,N/A,,Clear,170,2013-10-09 02:35:00
9:55 PM,66.2,44.6,46,29.91,10.0,South,11.5,18.4,N/A,,Clear,170,2013-10-09 02:55:00
10:15 PM,66.2,44.6,46,29.92,10.0,South,12.7,18.4,N/A,,Clear,170,2013-10-09 03:15:00
10:34 PM,64.4,46.4,52,29.92,10.0,South,11.5,-,N/A,,Clear,170,2013-10-09 03:34:00
10:55 PM,64.4,46.4,52,29.93,10.0,South,10.4,-,N/A,,Clear,170,2013-10-09 03:55:00
11:15 PM,64.4,46.4,52,29.93,10.0,SSE,12.7,-,N/A,,Clear,160,2013-10-09 04:15:00
11:35 PM,62.6,46.4,55,29.93,10.0,SSE,11.5,-,N/A,,Clear,160,2013-10-09 04:35:00
11:55 PM,62.6,46.4,55,29.94,10.0,South,9.2,16.1,N/A,,Clear,170,2013-10-09 04:55:00